SCOUT A DEB, 4555

Orbit data source: Space-Track

SCOUT A DEB, 4555 is space debris in LEO originally from a launch on Thu, 19 May 1966 UTC launched from the Air Force Western Test Range (AFWTR). Debris objects in space refer to the collection of defunct objects orbiting the Earth. Examples of debris include non-operational satellites, rocket bodies, and fragments generated from explosions, collisions, or faulty payload assembly.

Loading next visibility...
Identifier
4555, 1966-041F
Orbit
LEO
Country
Flag of USUS
Related business
Manufacturer
Unknown
Mission
Spacecraft
Bus & Motor
Unknown
Mass
Unknown
Launch date (UTC)
1966-05-19 (60 years ago)
Launch vehicle
Unknown
Launch site
Air Force Western Test Range (AFWTR)
Object type
Payload
Rocket body
Debris
Shape & HBR
Unknown shape, 0.1 m
Radar Cross Section
Medium (>0.1 m² and <1 m²)

Expand to show TLE details & history
Last TLE update: 1 day ago

TLE from 1 day ago
0 SCOUT A DEB
1 04555U 66041F   26207.41039719  .00002420  00000-0  57886-3 0  9992
2 04555  90.2068  75.6141 0039670 340.1092  19.8567 14.52938867429626
Epoch: 2026-07-26T09:50Z
TLE epoch observation values (Epoch: 2026-07-26T09:50:58.317Z)
Latitude
-0.00006°
Longitude
-16.23761°
Altitude
692.706 km
Speed
7.524 km/s
True Right ascension
05h 02m 27s
True Declination
0° 00' 00"
Sunlit
Object was in daylight at epoch
Visualization orbit readout
Latitude
Unknown
Longitude
Unknown
Altitude
Unknown
Speed
Unknown
Apparent Right ascension
Unknown
Apparent Declination
Unknown
Sunlit
N/A
Visualization observer readout
Local Sidereal Time
23:12:41
Azimuth
Unknown
Elevation
Unknown
Doppler factor
Unknown
Orbital elements
Apogee altitude
741.098 km
Perigee altitude
684.837 km
Semi-major axis
7,091.104 km
Eccentricity
0.00397
Inclination
90.2068°
RAAN
75.6141°
Arg. of periapsis
340.1092°
True anomaly
20.01183°
Mean anomaly
19.8567°
Eccentric anomaly
19.93419°
Mean motion
3.63473 °/min
Orbital period
99.04 mins
BSTAR
0.00057886
Loading maneuver chart data...
Computing Atmospheric mass density...
Loading historical data...
Loading historical data...
Loading historical data...
Loading historical data...
Loading historical data...
Loading historical data...
Loading historical data...

Documentation

Showing up to 5 results
|